Millville, NJ

11:11 AM EST on December 10, 2019 (GMT -0500)
Millville Municipal

Weather History for KMIV - October, 2019

Change the Weather History Date:

Tuesday, October 15, 2019

  Actual Average Record
Temperature  
Mean Temperature 56 °F -  
Max Temperature 69 °F 71 °F 86 °F (1985)
Min Temperature 44 °F 46 °F 28 °F (2006)
Degree Days  
Heating Degree Days 8    
Growing Degree Days 6 (Base 50)    
Moisture  
Dew Point 43 °F    
Average Humidity 69    
Maximum Humidity 97    
Minimum Humidity 32    
Precipitation  
Precipitation 0.00 in - - ()
Sea Level Pressure  
Sea Level Pressure 30.12 in    
Wind  
Wind Speed 2 mph (NW)    
Max Wind Speed 9 mph    
Max Gust Speed -    
Visibility 10 miles    
Events      
Averages and records for this station are not official NWS values.
T = Trace of Precipitation, MM = Missing Value Source: NWS Daily Summary

Daily Weather History Graph

Daily Weather History Graph

Search for Another Location

Airport or City:

Astronomy

Oct. 15, 2019 Rise Set
Actual Time 7:09 AM EDT 6:21 PM EDT
Civil Twilight 6:42 AM EDT 6:48 PM EDT
Nautical Twilight 6:11 AM EDT 7:19 PM EDT
Astronomical Twilight 5:40 AM EDT 7:50 PM EDT
Moon 7:40 PM EDT (10/15) 8:37 AM EDT (10/15)
Length of Visible Light 12h 05m
Length of Day
11h 11m
Full, 97% of the Moon is Illuminated
Oct 15
Full
Oct 21
Last Quarter
Oct 27
New
Nov 4
First Quarter
Nov 12
Full

Hourly Weather History & Observations

Time (EDT) Temp. Windchill Dew Point Humidity Pressure Visibility Wind Dir Wind Speed Gust Speed Precip Events Conditions
12:54 AM 48.9 °F - 46.9 °F 93% 30.07 in 9.0 mi Calm Calm - N/A   Clear
1:54 AM 46.9 °F - 46.0 °F 97% 30.09 in 10.0 mi West 3.5 mph - N/A   Clear
2:54 AM 46.0 °F - 44.1 °F 93% 30.10 in 9.0 mi Calm Calm - N/A   Clear
3:54 AM 44.1 °F 42.5 °F 42.1 °F 93% 30.10 in 10.0 mi WNW 3.5 mph - N/A   Clear
4:54 AM 44.1 °F - 42.1 °F 93% 30.11 in 10.0 mi Calm Calm - N/A   Clear
5:54 AM 46.9 °F - 42.1 °F 83% 30.13 in 10.0 mi Calm Calm - N/A   Clear
6:54 AM 44.1 °F - 41.0 °F 89% 30.15 in 10.0 mi Calm Calm - N/A   Clear
7:54 AM 48.0 °F - 42.1 °F 80% 30.17 in 10.0 mi NNW 3.5 mph - N/A   Clear
8:54 AM 53.1 °F - 44.1 °F 71% 30.18 in 10.0 mi North 4.6 mph - N/A   Clear
9:54 AM 59.0 °F - 39.9 °F 49% 30.19 in 10.0 mi NNE 9.2 mph - N/A   Clear
10:54 AM 63.0 °F - 37.9 °F 40% 30.18 in 10.0 mi East 8.1 mph - N/A   Clear
11:54 AM 64.9 °F - 39.9 °F 40% 30.17 in 10.0 mi NE 4.6 mph - N/A   Clear
12:54 PM 64.9 °F - 37.0 °F 36% 30.15 in 10.0 mi Calm Calm - N/A   Clear
1:54 PM 66.9 °F - 36.0 °F 32% 30.13 in 10.0 mi Variable 3.5 mph - N/A   Clear
2:54 PM 69.1 °F - 37.9 °F 32% 30.11 in 10.0 mi Variable 3.5 mph - N/A   Clear
3:54 PM 66.9 °F - 42.1 °F 40% 30.10 in 10.0 mi SW 6.9 mph - N/A   Clear
4:54 PM 66.0 °F - 41.0 °F 40% 30.09 in 10.0 mi SW 3.5 mph - N/A   Clear
5:54 PM 63.0 °F - 45.0 °F 52% 30.08 in 10.0 mi Calm Calm - N/A   Clear
6:54 PM 55.0 °F - 48.0 °F 77% 30.09 in 9.0 mi Calm Calm - N/A   Clear
7:54 PM 52.0 °F - 46.0 °F 80% 30.09 in 10.0 mi Calm Calm - N/A   Clear
8:54 PM 50.0 °F - 46.0 °F 86% 30.08 in 10.0 mi Calm Calm - N/A   Clear
9:54 PM 48.0 °F - 45.0 °F 89% 30.07 in 10.0 mi Calm Calm - N/A   Clear
10:54 PM 46.9 °F - 44.1 °F 90% 30.07 in 10.0 mi Calm Calm - N/A   Clear
11:54 PM 46.9 °F - 44.1 °F 90% 30.06 in 10.0 mi Calm Calm - N/A   Clear